Location: Abrud-Sat-Ciuruleasa
(46.2500°N, 23.0333°E)
Time: 11:11:49
(UTC+00:00)

Daily predictions for brighter satellites

Satellite Brightness Start Highest point End
(mag) Time Altitude Azimuth Time Altitude Azimuth Time Altitude Azimuth
Cosmos 2061 Rocket 4.1 17:03:07 10° S 17:09:32 78° E 17:15:59 10° N
SAR-Lupe-2 3.8 17:06:32 10° SSE 17:09:59 48° ENE 17:13:27 10° N
Landsat 7 4.0 17:05:56 10° S 17:10:37 78° WSW 17:15:21 10° NNW
COSMOS 2428 2.9 17:07:04 10° S 17:12:35 54° ESE 17:18:10 10° NE
Meteor PRIRODA 3.9 17:12:39 10° SE 17:15:44 38° ENE 17:18:49 10° N
Cosmos 2016 Rocket 4.4 17:10:23 10° SSW 17:16:26 70° W 17:22:34 10° N
Cosmos 2292 Rocket 4.2 17:13:03 10° NNW 17:16:35 46° W 17:19:33 10° SSW
Cosmos 1842 4.0 17:15:01 10° NNE 17:18:14 29° ENE 17:21:26 10° SE
Cosmos 1536 4.1 17:15:38 10° SE 17:18:20 19° E 17:21:04 10° NE
Cosmos 1818 3.8 17:13:34 10° SW 17:19:01 79° NW 17:24:33 10° NE
Cosmos 1707 3.6 17:19:13 10° NNE 17:22:16 26° ENE 17:25:18 10° SE
Okean O Rocket 3.2 17:20:39 10° ESE 17:23:38 18° ENE 17:26:37 10° NNE
Tsikada Rocket 4.2 17:18:18 10° N 17:24:36 80° W 17:30:56 10° S
Meteor 2-4 Rocket 4.2 17:18:46 10° NNW 17:24:41 70° W 17:30:29 10° S
Cosmos 2278 Rocket 2.6 17:19:21 10° NNW 17:24:49 46° ENE 17:30:15 10° SE
CZ-4B DEB 4.3 17:21:21 10° SSE 17:26:45 59° ENE 17:32:09 10° N
NOSS 2-1 (C) 3.5 17:23:29 10° NW 17:27:17 74° NE 17:32:28 10° SE
DMSP B5D1-3 4.4 17:23:30 10° NNE 17:28:35 77° ESE 17:33:39 10° S
CZ-4B R/B 3.8 17:26:24 10° SE 17:31:23 38° ENE 17:36:18 10° N
CZ-4 R/B 1.5 17:30:26 10° SSE 17:34:06 49° ENE 17:37:52 10° N
Cosmos 44 Rocket 4.4 17:30:06 10° NW 17:34:36 43° WSW 17:39:00 10° S
TSX-5 3.7 17:32:26 10° NW 17:35:32 61° WSW 17:38:47 10° SSE
Cosmos 1766 Rocket 3.5 17:32:03 10° S 17:36:21 66° E 17:40:43 10° NNE
ADEOS 3.6 17:31:49 10° SSE 17:37:02 86° ENE 17:42:17 10° NNW
Resurs 01 Rocket 2.1 17:33:36 10° SE 17:37:43 40° ENE 17:41:52 10° N
GEOS 3 Rocket 3.7 17:32:42 10° SE 17:37:52 65° NE 17:43:00 10° NW
USA 306 2.9 17:35:01 10° WSW 17:37:59 54° NNW 17:41:30 10° NE
Cosmos 2360 Rocket 4.4 17:34:31 10° WSW 17:39:20 28° NW 17:44:11 10° N
PAYLOAD B 4.4 17:34:09 10° SSE 17:39:37 59° ENE 17:45:08 10° N
YAOGAN 1 4.0 17:36:33 10° S 17:40:35 41° W 17:44:39 10° NNW
CZ-4B R/B 3.4 17:36:00 10° SSE 17:40:45 87° WSW 17:45:35 10° NNW
Cosmos 1814 Rocket 4.0 17:35:32 10° SSW 17:40:49 77° ESE 17:46:05 10° NNE
Helios 1A 2.9 17:37:20 10° NNE 17:41:23 63° ESE 17:45:24 10° S
USA 267 4.5 17:35:47 10° ENE 17:41:33 35° N 17:47:22 10° WNW
Kosmos-1783 3.9 17:40:52 10° WSW 17:43:09 33° NW 17:44:48 10° NNE
USA 290 2.2 17:41:26 10° NNW 17:44:42 64° ENE 17:47:32 13° SSE
SPOT 5 4.4 17:43:06 14° E 17:44:52 17° ENE 17:47:43 10° NNE
Okean-O 4.2 17:45:38 15° E 17:47:18 18° ENE 17:50:18 10° NNE
USA 186 2.1 17:45:12 13° SE 17:47:51 45° ENE 17:50:58 10° N
Cosmos 1743 4.0 17:44:29 10° SSW 17:47:52 41° WNW 17:51:17 10° N
SPOT 1/Viking Rocket 3.7 17:43:10 10° S 17:48:21 80° WSW 17:53:33 10° NNW
KORONAS-FOTON 3.6 17:45:30 10° N 17:49:13 75° E 17:52:53 10° SSE
Cosmos 1408 Rocket 4.4 17:46:52 10° SSE 17:50:37 29° E 17:54:25 10° NNE
Cosmos 2237 Rocket 2.4 17:46:31 10° S 17:51:49 45° ESE 17:57:09 10° NE
SKYMED 3 4.5 17:48:07 10° NNE 17:52:16 84° WNW 17:56:22 10° SSW
CZ-4B R/B 2.7 17:50:25 10° SSE 17:54:15 82° ENE 17:58:18 10° NNW
SL-08 R/B 3.6 17:50:20 10° N 17:55:16 75° WNW 18:00:10 10° SSW
CSL-04 Rocket 3.8 17:50:11 10° SE 17:55:22 52° ENE 18:00:31 10° N
ISS -3.7 17:52:22 10° SW 17:55:39 57° SSE 17:57:45 20° ENE
Cosmos 2219 Rocket 3.9 17:51:27 10° WSW 17:56:39 36° NW 18:01:53 10° NNE
Meteor 1-14 Rocket 4.1 17:54:24 10° S 17:59:56 85° E 18:05:31 10° NNE
Aureole 1 4.4 17:57:36 10° NNW 18:00:42 61° ENE 18:02:47 22° SE
Meteor 1-11 Rocket 3.9 17:57:43 10° SSE 18:03:05 48° E 18:08:23 10° NNE
NOSS 2-1 (E) 4.2 18:00:37 10° NW 18:04:32 58° SW 18:09:33 12° SSE
Cosmos 1328 Rocket 4.2 18:00:36 10° NNW 18:04:49 57° W 18:09:01 10° S
Cosmos 1356 Rocket 3.4 18:03:31 10° N 18:07:44 90° W 18:11:52 10° S
Cosmos 1674 3.9 18:04:57 10° NNW 18:08:02 36° W 18:11:05 10° SSW
Lacrosse 4 Rocket 3.7 18:05:47 10° NW 18:09:15 24° WSW 18:12:40 10° SSW
SJ-6B 4.0 18:06:58 10° SSW 18:10:23 39° W 18:13:48 10° NNW
Cosmos 158 Rocket 4.0 18:06:18 10° S 18:10:57 46° ESE 18:15:36 10° NNE
BREEZE-M DEB (TANK) 4.1 18:09:40 10° WNW 18:12:31 55° N 18:16:40 19° E
CARTOSAT-1 3.5 18:09:13 11° SSE 18:13:17 90° N 18:17:33 10° NNW
Meteor 1-4 Rocket 3.6 18:13:10 10° NNW 18:15:36 31° W 18:18:00 10° SSW
ATLAS CENTAUR R/B 1.0 18:12:34 10° SSW 18:16:01 54° ESE 18:19:39 10° NE
Cosmos 1805 Rocket 4.1 18:15:48 31° ESE 18:16:39 34° E 18:20:35 10° NNE
In-Cosmos 22 4.1 18:14:04 10° N 18:19:48 78° ENE 18:24:24 15° SSE
Cosmos 1980 3.6 18:15:36 10° SSW 18:21:16 81° ESE 18:26:59 10° NNE
Cosmos 2369 Rocket 3.7 18:17:12 10° N 18:21:32 21° NE 18:23:25 18° ENE
Cosmos 1733 2.9 18:20:55 10° S 18:24:21 84° W 18:27:48 10° N
NOSS 0 Rocket 4.2 18:21:22 10° SW 18:27:35 73° WNW 18:33:52 10° NNE
ACS3 Solar Sail 1.9 18:24:20 18° SSE 18:29:11 71° ENE 18:35:34 10° N
Cosmos 1943 Rocket 2.1 18:23:49 10° NNW 18:29:21 89° WSW 18:32:34 26° SSE
USA 276 2.2 18:27:54 10° WNW 18:30:24 54° WSW 18:30:24 54° WSW
CSL-04 Debris 4.3 18:26:01 11° S 18:31:13 76° WSW 18:36:43 10° NNW
Nadezhda 4 Rocket 3.9 18:25:12 10° N 18:31:30 87° E 18:37:05 14° S
SWARM A 4.3 18:29:55 30° S 18:31:33 88° W 18:35:05 10° N
Sich 1 3.0 18:30:57 39° SE 18:32:09 54° E 18:36:22 10° NNE
Cosmos 2298 Rocket 4.2 18:29:04 10° NNW 18:34:17 55° ENE 18:35:58 39° ESE
ERS-1 Rocket 3.8 18:34:08 30° E 18:34:44 31° ENE 18:39:09 10° N
Terra 3.0 18:35:11 26° ENE 18:35:13 26° ENE 18:39:06 10° N
Cosmos 1570 Rocket 3.9 18:30:12 10° SSW 18:35:29 88° ESE 18:40:47 10° NNE
Cosmos 2150 Rocket 4.1 18:30:57 10° NNW 18:36:02 56° ENE 18:37:30 41° ESE
BlueWalker 3 3.9 18:33:44 10° W 18:36:33 20° SW 18:37:58 17° SSW
USA 32 4.0 18:31:45 10° N 18:36:57 60° E 18:38:54 37° SE
Cosmos 2026 Rocket 4.1 18:32:51 10° N 18:38:58 55° ENE 18:41:19 35° SE
Cosmos 1092 Rocket 4.2 18:33:08 10° N 18:39:21 54° ENE 18:41:49 35° SE
Cosmos 1975 4.3 18:43:58 23° NE 18:43:58 23° NE 18:45:43 10° NNE
Ariane Rocket 4.3 18:44:14 24° ENE 18:44:14 24° ENE 18:48:12 10° N
Cosmos 836 Rocket 4.4 18:40:56 10° SSW 18:46:11 73° ESE 18:51:29 10° NNE
Cosmos 1805 3.2 18:47:21 60° NE 18:47:21 60° NE 18:50:28 10° NNE
Cosmos 1315 Rocket 2.9 18:44:21 10° NNW 18:48:19 73° W 18:49:14 50° SSW
Cosmos 1464 Rocket 4.4 18:42:44 10° SSW 18:49:00 65° W 18:55:22 10° N
SL-16 R/B 2.8 18:53:32 36° ENE 18:53:32 36° ENE 18:57:29 10° NE
Cosmos 1125 Rocket 4.0 18:47:38 10° NNW 18:52:44 57° WSW 18:55:24 27° S
Cosmos 1634 Rocket 4.1 18:51:54 41° SE 18:53:42 53° E 18:59:49 10° NNE
Cosmos 1536 4.4 18:50:31 10° SW 18:53:58 33° WNW 18:57:28 10° N
USA 59 Rocket 2.3 18:53:01 10° WNW 18:56:27 23° WSW 19:00:06 12° SSW
Cosmos 1656 Rocket 4.0 18:53:51 10° NNW 18:59:19 46° ENE 18:59:58 44° ENE
Okean O Rocket 2.2 18:57:42 32° SSW 18:59:28 55° W 19:03:51 10° NNW
IRS-1C Rocket 4.1 19:04:02 56° E 19:04:25 57° ENE 19:09:35 10° N
SL-14 R/B 3.5 19:02:14 10° N 19:05:27 62° NNW 19:05:27 62° NNW
Cosmos 773 Rocket 3.9 19:05:45 63° SSE 19:06:21 70° ESE 19:11:38 10° NNE
Cosmos 2278 Rocket 3.8 19:03:48 10° NW 19:08:41 31° WSW 19:12:40 14° SSW
CZ-4 R/B 4.2 19:06:53 10° WSW 19:08:55 14° W 19:11:00 10° WNW
PSLV R/B 4.4 19:09:57 48° WNW 19:09:57 48° WNW 19:13:03 10° NNW
USA 306 4.4 19:08:14 10° WNW 19:11:08 25° N 19:11:32 24° N
Cosmos 2034 Rocket 4.3 19:05:07 10° SSW 19:11:16 64° W 19:17:25 10° N
Cosmos 1500 Rocket 4.3 19:10:44 24° SW 19:13:08 51° WNW 19:17:23 10° N
Resurs 01 Rocket 3.8 19:10:48 10° SW 19:14:17 22° W 19:17:47 10° NW
Cosmos 1627 Rocket 4.4 19:08:15 10° N 19:14:34 85° W 19:16:37 46° S
MetOp-B 4.1 19:14:53 60° S 19:15:54 82° WSW 19:21:18 10° NNW
NOSS 3-3 (C) 3.8 19:11:47 10° SW 19:17:10 78° NW 19:23:34 10° NE
Cosmos 2228 Rocket 3.6 19:14:19 10° N 19:17:55 51° NNE 19:17:55 51° NNE
SPOT 3 Rocket 4.2 19:20:19 42° NE 19:20:19 42° NE 19:24:29 10° N
Cosmos 1743 Rocket 4.0 19:19:19 54° WSW 19:19:48 58° WNW 19:24:06 10° N
CRYOSAT 2 4.4 19:16:34 10° N 19:21:28 76° W 19:21:56 69° SW
SPOT 5 3.0 19:22:14 61° WSW 19:22:29 62° WSW 19:26:56 10° NNW
Okean-O 3.1 19:23:05 53° WSW 19:23:16 53° W 19:27:36 10° NNW
USA 267 4.0 19:21:02 30° ENE 19:23:41 43° NNE 19:29:45 10° NW
NOSS 3-3 (A) 4.2 19:26:06 10° SW 19:31:28 61° NW 19:37:50 10° NE
ISS -1.2 19:29:23 10° W 19:30:43 20° WNW 19:30:43 20° WNW
Cosmos 2279 Rocket 3.9 19:35:28 72° E 19:35:28 72° E 19:41:31 10° NNE
Cosmos 2237 Rocket 3.8 19:30:59 10° WSW 19:36:01 33° NW 19:41:04 10° NNE
Cosmos 1607 3.9 19:32:29 10° SW 19:38:57 89° NW 19:45:27 10° NE
MOS 1 Rocket 4.1 19:45:39 51° WSW 19:45:48 51° W 19:50:57 10° NNW
Cosmos 2297 3.8 19:41:57 10° NNW 19:47:04 74° NNW 19:47:04 74° NNW
Spot 2 Rocket 4.0 19:50:59 57° NNW 19:50:59 57° NNW 19:55:00 10° NNW
ATLAS CENTAUR R/B 3.7 19:51:03 10° W 19:53:44 19° NW 19:54:53 17° NNW
NOSS 3-4 (A) 3.7 19:49:52 10° NW 19:56:46 87° NE 19:57:11 81° ESE
NOSS 3-4 (C) 3.7 19:49:58 10° NW 19:56:52 86° NE 19:57:17 81° ESE
Cosmos 2369 Rocket 2.6 20:00:30 10° NNW 20:05:11 60° NW 20:05:11 60° NW
Terra 3.3 20:13:52 33° WNW 20:13:52 33° WNW 20:17:03 10° NNW
ERS-1 Rocket 4.3 20:14:03 35° W 20:14:03 35° W 20:18:02 10° NNW
ACS3 Solar Sail 3.9 20:09:35 12° SW 20:13:47 22° W 20:18:34 10° NW
Ariane Rocket 4.3 20:24:21 37° NW 20:24:21 37° NW 20:27:44 10° NNW
Cosmos 2266 Rocket 4.4 20:20:03 10° N 20:25:07 60° NNW 20:25:07 60° NNW
SL-16 R/B 3.6 20:35:16 33° WNW 20:36:21 35° NW 20:41:33 10° NNE
ATLAS 2AS CENTAUR R/B 4.3 20:41:57 10° NNW 20:47:28 24° NNE 20:49:08 22° NE
USA 267 3.9 21:08:22 48° NW 21:08:22 48° NW 21:12:52 10° NW
Cosmos 2344 4.3 21:08:38 10° NW 21:16:36 57° NE 21:17:16 56° ENE
Cosmos 1980 Rocket 4.4 22:07:56 10° N 22:10:30 21° NNE 22:10:30 21° NNE
USA 215 4.4 22:08:18 10° NE 22:12:42 38° NNE 22:12:42 38° NNE
ATLAS 2AS CENTAUR R/B 4.0 22:32:51 10° NW 22:36:31 33° NNW 22:36:31 33° NNW
Cosmos 2082 Rocket 4.1 23:25:38 24° NE 23:25:38 24° NE 23:27:57 10° NE
SL-16 R/B 3.9 23:33:01 10° N 23:37:43 28° NE 23:37:43 28° NE
CZ-2C R/B 4.4 23:46:19 26° N 23:46:19 26° N 23:48:42 10° N
Resurs 1-4 Rocket 4.1 23:42:04 10° NE 23:44:44 23° ENE 23:44:44 23° ENE
SL-16 R/B 4.4 23:51:12 16° ESE 23:54:46 26° ENE 23:59:46 10° N
